sat.trackr.live / text

‹ back to catalog

STARLINK-34971

NORAD 65256 · 2025-179X

PAYLOAD ACTIVE UNKNOWN

§ Identity

Operator
Country
US
Launch date
2025-08-18
Launch site
AFWTR
Launch vehicle
Mass (kg)
RCS (m²)

Purposes: comms

External: N2YO · Heavens-Above · Gunter

§ Orbital elements

Epoch: 2026-09-20T14:14:03.559200Z

Period
93.91 min
Inclination
97.2836°
Eccentricity
0.0000456
Mean motion
15.33455063 rev/d
Perigee alt
465.2 km
Apogee alt
465.8 km
Semi-major
6,843.7 km
B*
3.2618e-4
RAAN
302.8661°
Arg perigee
325.3743°
Mean anomaly
34.7470°
Rev number
6,105

§ Raw data

STARLINK-349711 65256U 25179X   26263.59309675  .00010473  00000+0  32618-3 0  99982 65256  97.2836 302.8661 0000456 325.3743  34.7470 15.33455063 61051

JSON: /api/v1/satellites/65256 · /tle

For live sub-satellite position, see the globe view (requires WebGL).

§ Visibility from observer

Set your observer location to see the next 7 days of passes ≥ 10°. The values pass through the URL so the page stays shareable.

No JS? Fill the form by hand. The geolocation button needs JavaScript.